Jendouba, Tunisia

9:13 AM CET on October 21, 2019 (GMT +0100)
Jendouba

Weather History for DTTN - August, 2019

Change the Weather History Date:

Saturday, August 10, 2019

  Actual Average Record
Temperature  
Mean Temperature 88 °F -  
Max Temperature 107 °F 94 °F - ()
Min Temperature 68 °F 65 °F - ()
Cooling Degree Days 22    
Growing Degree Days 38 (Base 50)    
Moisture  
Dew Point 48 °F    
Average Humidity 27    
Maximum Humidity 56    
Minimum Humidity 4    
Precipitation  
Precipitation 0.00 in 0.03 in - ()
Sea Level Pressure  
Sea Level Pressure 29.98 in    
Wind  
Wind Speed 4 mph ()    
Max Wind Speed 12 mph    
Max Gust Speed -    
Visibility 6.3 miles    
Events      
T = Trace of Precipitation, MM = Missing Value Source: Averaged Metar Reports

Daily Weather History Graph

Daily Weather History Graph

Search for Another Location

Airport or City:

Astronomy

Aug. 10, 2019 Rise Set
Actual Time 5:38 AM CET 7:21 PM CET
Civil Twilight 5:10 AM CET 7:49 PM CET
Nautical Twilight 4:36 AM CET 8:23 PM CET
Astronomical Twilight 4:00 AM CET 8:58 PM CET
Moon 3:45 PM CET (8/10) 1:05 AM CET (8/10)
Length of Visible Light 14h 39m
Length of Day
13h 43m
Waxing Gibbous, 77% of the Moon is Illuminated
Aug 10
Waxing Gibbous
Aug 15
Full
Aug 23
Last Quarter
Aug 30
New
Sep 6
First Quarter

Hourly Weather History & Observations

Time (CET) Temp. Heat Index Dew Point Humidity Pressure Visibility Wind Dir Wind Speed Gust Speed Precip Events Conditions
12:00 AM 77.0 °F - 48.2 °F 36% 29.98 in 5.0 mi South 2.3 mph - N/A   Unknown
1:00 AM 76 °F - 50 °F 29% 29.99 in 5 mi SSW 2.3 mph - -   Clear
1:00 AM 77.0 °F - 50.0 °F 39% 29.98 in 5.0 mi SSW 2.3 mph - N/A   Unknown
2:00 AM 73.4 °F - 51.8 °F 47% 29.98 in 5.0 mi SW 4.6 mph - N/A   Unknown
4:00 AM 69 °F - 54 °F 48% 29.99 in 5 mi SW 4.6 mph - -   Clear
4:00 AM 69.8 °F - 53.6 °F 56% 29.98 in 5.0 mi SW 4.6 mph - N/A   Unknown
5:00 AM 69.8 °F - 51.8 °F 53% 29.98 in 5.0 mi SW 3.5 mph - N/A   Unknown
6:00 AM 69.8 °F - 53.6 °F 56% 30.01 in - WSW 3.5 mph - N/A   Unknown
7:00 AM 73 °F - 54 °F 41% 30.01 in 9 mi SSW 2.3 mph - -   Clear
7:00 AM 73.4 °F - 53.6 °F 50% 30.01 in - SSW 2.3 mph - N/A   Clear
8:00 AM 78.8 °F - 55.4 °F 44% 30.01 in - South 2.3 mph - N/A   Clear
9:00 AM 86.0 °F 84.5 °F 55.4 °F 35% 30.04 in - SW 3.5 mph - N/A   Unknown
10:00 AM 91 °F - 55 °F 20% 30.01 in 9 mi WNW 2.3 mph - -   Clear
10:00 AM 91.4 °F 89.4 °F 55.4 °F 29% 30.01 in - WNW 2.3 mph - N/A   Clear
11:00 AM 96.8 °F 94.4 °F 53.6 °F 23% 29.98 in - South 2.3 mph - N/A   Clear
12:00 PM 100.4 °F - 46.4 °F 16% 30.01 in - Variable 2.3 mph - N/A   Clear
1:00 PM 103 °F - 45 °F 7% 29.95 in 9 mi NE 4.6 mph - -   Clear
1:00 PM 104.0 °F - 44.6 °F 13% 29.98 in - Variable 4.6 mph - N/A   Clear
2:00 PM 107.6 °F - 41.0 °F 10% 29.98 in - Variable 2.3 mph - N/A   Clear
3:00 PM 105.8 °F - 35.6 °F 9% 29.95 in - NW 9.2 mph - N/A   Clear
4:00 PM 105 °F - 35 °F 4% 29.92 in 9 mi NW 10.4 mph - -   Clear
4:00 PM 105.8 °F - 35.6 °F 9% 29.95 in - NW 10.4 mph - N/A   Clear
5:00 PM 102.2 °F - 30.2 °F 8% 29.95 in - NNW 11.5 mph - N/A   Clear
6:00 PM 100.4 °F - 35.6 °F 11% 29.95 in - NNW 10.4 mph - N/A   Clear
7:00 PM 96 °F - 43 °F 9% 29.94 in 9 mi NW 8.1 mph - -   Clear
7:00 PM 96.8 °F - 42.8 °F 16% 29.98 in - NW 8.1 mph - N/A   Clear
8:00 PM 93.2 °F - 46.4 °F 20% 29.98 in - NNW 6.9 mph - N/A   Clear
9:00 PM 87.8 °F - 48.2 °F 25% 30.01 in - Calm Calm - N/A   Clear
10:00 PM 88 °F - 49 °F 16% 30.00 in 5 mi NNE 5.8 mph - -   Clear
10:00 PM 87.8 °F - 48.2 °F 25% 30.01 in 5.0 mi NNE 5.8 mph - N/A   Unknown
11:00 PM 82.4 °F - 51.8 °F 35% 30.01 in 5.0 mi Variable 2.3 mph - N/A   Unknown